Shenandoah, IA

7:44 PM CDT on April 23, 2017 (GMT -0500)
Shenandoah Municipal

Weather History for KSDA - November, 2012

Change the Weather History Date:

Friday, November 23, 2012

  Actual Average Record
Temperature  
Mean Temperature 32 °F -  
Max Temperature 44 °F 45 °F 68 °F (2006)
Min Temperature 17 °F 27 °F 5 °F (2007)
Degree Days  
Heating Degree Days 34    
Moisture  
Dew Point 13 °F    
Average Humidity 50    
Maximum Humidity 75    
Minimum Humidity 24    
Precipitation  
Precipitation 0.00 in - - ()
Sea Level Pressure  
Sea Level Pressure 30.43 in    
Wind  
Wind Speed 11 mph (NW)    
Max Wind Speed 24 mph    
Max Gust Speed 31 mph    
Visibility 10 miles    
Events      
Averages and records for this station are not official NWS values.
T = Trace of Precipitation, MM = Missing Value Source: NWS Daily Summary

Daily Weather History Graph

Daily Weather History Graph

Search for Another Location

Airport or City:

Trip Planner

Search our weather history database for the weather conditions in past years. The results will help you decide how hot, cold, wet, or windy it might be!

Date:

Astronomy

Nov. 23, 2012 Rise Set
Actual Time 7:18 AM CST 4:57 PM CST
Civil Twilight 6:48 AM CST 5:27 PM CST
Nautical Twilight 6:14 AM CST 6:01 PM CST
Astronomical Twilight 5:42 AM CST 6:34 PM CST
Moon 2:14 PM CST (11/23) 2:36 AM CST (11/23)
Length of Visible Light 10h 39m
Length of Day
9h 39m
Waxing Gibbous, 80% of the Moon is Illuminated
Nov 23
Waxing Gibbous
Nov 28
Full
Dec 6
Last Quarter
Dec 13
New
Dec 19
First Quarter

Hourly Weather History & Observations

Time (CST) Temp. Windchill Dew Point Humidity Pressure Visibility Wind Dir Wind Speed Gust Speed Precip Events Conditions
12:15 AM 37.4 °F 30.8 °F 30.2 °F 75% 30.24 in 10.0 mi WSW 9.2 mph - N/A   Scattered Clouds
12:35 AM 39.2 °F 32.5 °F 30.2 °F 70% 30.24 in 10.0 mi West 10.4 mph - N/A   Scattered Clouds
12:55 AM 39.2 °F 32.0 °F 30.2 °F 70% 30.24 in 10.0 mi West 11.5 mph - N/A   Scattered Clouds
1:35 AM 42.8 °F 35.8 °F 30.2 °F 61% 30.25 in 10.0 mi NW 13.8 mph 20.7 mph N/A   Scattered Clouds
1:55 AM 44.6 °F 37.8 °F 28.4 °F 53% 30.26 in 10.0 mi NW 15.0 mph 26.5 mph N/A   Mostly Cloudy
2:15 AM 41.0 °F 32.2 °F 28.4 °F 61% 30.28 in 10.0 mi NNW 18.4 mph 24.2 mph N/A   Overcast
2:35 AM 39.2 °F 28.5 °F 26.6 °F 61% 30.30 in 10.0 mi NNW 24.2 mph 31.1 mph N/A   Overcast
2:55 AM 37.4 °F 26.6 °F 21.2 °F 52% 30.32 in 10.0 mi NW 21.9 mph 31.1 mph N/A   Overcast
3:15 AM 35.6 °F 24.8 °F 14.0 °F 41% 30.34 in 10.0 mi NW 19.6 mph 29.9 mph N/A   Overcast
3:35 AM 35.6 °F 26.2 °F 15.8 °F 44% 30.34 in 10.0 mi NNW 15.0 mph 20.7 mph N/A   Overcast
3:55 AM 33.8 °F 23.5 °F 17.6 °F 52% 30.35 in 10.0 mi NNW 16.1 mph 28.8 mph N/A   Scattered Clouds
4:15 AM 32.0 °F 23.0 °F 17.6 °F 55% 30.36 in 10.0 mi NNW 11.5 mph 21.9 mph N/A   Scattered Clouds
4:35 AM 32.0 °F 19.8 °F 14.0 °F 48% 30.37 in 10.0 mi NNW 20.7 mph 31.1 mph N/A   Scattered Clouds
4:55 AM 32.0 °F 22.5 °F 15.8 °F 51% 30.39 in 10.0 mi NW 12.7 mph 28.8 mph N/A   Scattered Clouds
5:15 AM 30.2 °F 19.8 °F 15.8 °F 55% 30.40 in 10.0 mi NW 13.8 mph 19.6 mph N/A   Scattered Clouds
5:35 AM 30.2 °F 19.8 °F 15.8 °F 55% 30.41 in 10.0 mi NW 13.8 mph 23.0 mph N/A   Scattered Clouds
5:55 AM 30.2 °F 20.8 °F 15.8 °F 55% 30.42 in 10.0 mi NW 11.5 mph 23.0 mph N/A   Scattered Clouds
6:15 AM 28.4 °F 18.0 °F 14.0 °F 55% 30.42 in 10.0 mi NW 12.7 mph 18.4 mph N/A   Scattered Clouds
6:35 AM 28.4 °F 19.1 °F 15.8 °F 59% 30.42 in 10.0 mi NW 10.4 mph 19.6 mph N/A   Scattered Clouds
6:55 AM 28.4 °F 18.5 °F 15.8 °F 59% 30.44 in 10.0 mi NW 11.5 mph - N/A   Scattered Clouds
7:15 AM 28.4 °F 19.7 °F 15.8 °F 59% 30.44 in 10.0 mi NW 9.2 mph 16.1 mph N/A   Scattered Clouds
7:35 AM 28.4 °F 18.0 °F 14.0 °F 55% 30.45 in 10.0 mi NW 12.7 mph 18.4 mph N/A   Clear
7:55 AM 28.4 °F 17.5 °F 14.0 °F 55% 30.46 in 10.0 mi NNW 13.8 mph 23.0 mph N/A   Clear
8:15 AM 28.4 °F 18.5 °F 14.0 °F 55% 30.46 in 10.0 mi NW 11.5 mph 17.3 mph N/A   Clear
8:35 AM 28.4 °F 19.7 °F 14.0 °F 55% 30.47 in 10.0 mi NW 9.2 mph 19.6 mph N/A   Clear
8:55 AM 30.2 °F 18.5 °F 14.0 °F 51% 30.47 in 10.0 mi NW 17.3 mph 29.9 mph N/A   Clear
9:15 AM 30.2 °F 18.9 °F 14.0 °F 51% 30.49 in 10.0 mi NW 16.1 mph 24.2 mph N/A   Clear
9:35 AM 30.2 °F 20.2 °F 14.0 °F 51% 30.49 in 10.0 mi NW 12.7 mph 24.2 mph N/A   Clear
9:55 AM 30.2 °F 18.5 °F 12.2 °F 47% 30.49 in 10.0 mi NW 17.3 mph 24.2 mph N/A   Clear
10:15 AM 32.0 °F 21.2 °F 12.2 °F 44% 30.50 in 10.0 mi NW 16.1 mph 26.5 mph N/A   Clear
10:35 AM 33.8 °F 22.8 °F 12.2 °F 41% 30.49 in 10.0 mi NNW 18.4 mph 25.3 mph N/A   Clear
10:55 AM 33.8 °F 23.5 °F 12.2 °F 41% 30.50 in 10.0 mi NW 16.1 mph 23.0 mph N/A   Clear
11:15 AM 33.8 °F 23.9 °F 10.4 °F 38% 30.50 in 10.0 mi NNW 15.0 mph 24.2 mph N/A   Clear
11:56 AM 35.6 °F 27.1 °F 10.4 °F 35% 30.49 in 10.0 mi NW 12.7 mph 25.3 mph N/A   Clear
12:17 PM 37.4 °F 28.2 °F 10.4 °F 33% 30.48 in 10.0 mi NW 16.1 mph 23.0 mph N/A   Clear
12:36 PM 37.4 °F 28.2 °F 8.6 °F 30% 30.48 in 10.0 mi NW 16.1 mph 23.0 mph N/A   Clear
12:56 PM 37.4 °F 30.3 °F 8.6 °F 30% 30.48 in 10.0 mi NW 10.4 mph 20.7 mph N/A   Clear
1:17 PM 37.4 °F 28.9 °F 6.8 °F 28% 30.47 in 10.0 mi NNW 13.8 mph 23.0 mph N/A   Clear
1:37 PM 37.4 °F 29.8 °F 6.8 °F 28% 30.47 in 10.0 mi NNW 11.5 mph 21.9 mph N/A   Clear
1:58 PM 39.2 °F 31.6 °F 6.8 °F 26% 30.46 in 10.0 mi NNW 12.7 mph 18.4 mph N/A   Clear
2:15 PM 37.4 °F 29.3 °F 6.8 °F 28% 30.46 in 10.0 mi NNW 12.7 mph 20.7 mph N/A   Clear
2:16 PM 37.4 °F 28.9 °F 6.8 °F 28% 30.46 in 10.0 mi North 13.8 mph 20.7 mph N/A   Clear
2:35 PM 39.2 °F 30.8 °F 5.0 °F 24% 30.46 in 10.0 mi NW 15.0 mph 19.6 mph N/A   Clear
2:55 PM 37.4 °F 29.3 °F 6.8 °F 28% 30.46 in 10.0 mi NNW 12.7 mph 17.3 mph N/A   Clear
3:15 PM 37.4 °F 30.3 °F 5.0 °F 26% 30.46 in 10.0 mi NW 10.4 mph 18.4 mph N/A   Clear
3:35 PM 37.4 °F 29.3 °F 5.0 °F 26% 30.46 in 10.0 mi NW 12.7 mph 20.7 mph N/A   Clear
3:55 PM 37.4 °F 30.3 °F 6.8 °F 28% 30.46 in 10.0 mi NW 10.4 mph 16.1 mph N/A   Clear
4:15 PM 37.4 °F 29.8 °F 5.0 °F 26% 30.46 in 10.0 mi NNW 11.5 mph 16.1 mph N/A   Clear
4:35 PM 35.6 °F 29.2 °F 3.2 °F 26% 30.46 in 10.0 mi NNW 8.1 mph - N/A   Clear
4:55 PM 33.8 °F 29.6 °F 6.8 °F 32% 30.46 in 10.0 mi NNW 4.6 mph - N/A   Clear
5:15 PM 30.2 °F 24.3 °F 6.8 °F 37% 30.46 in 10.0 mi NNW 5.8 mph - N/A   Scattered Clouds
5:35 PM 30.2 °F 26.7 °F 8.6 °F 40% 30.46 in 10.0 mi NNW 3.5 mph - N/A   Scattered Clouds
5:55 PM 30.2 °F 26.7 °F 8.6 °F 40% 30.46 in 10.0 mi NNW 3.5 mph - N/A   Scattered Clouds
6:15 PM 26.6 °F 22.6 °F 10.4 °F 51% 30.46 in 10.0 mi North 3.5 mph - N/A   Scattered Clouds
6:35 PM 26.6 °F 22.6 °F 12.2 °F 55% 30.46 in 10.0 mi NW 3.5 mph - N/A   Scattered Clouds
6:55 PM 24.8 °F - 10.4 °F 54% 30.46 in 10.0 mi Calm Calm - N/A   Scattered Clouds
7:15 PM 26.6 °F - 12.2 °F 55% 30.46 in 10.0 mi Calm Calm - N/A   Scattered Clouds
7:35 PM 26.6 °F - 10.4 °F 51% 30.45 in 10.0 mi Calm Calm - N/A   Scattered Clouds
7:55 PM 23.0 °F - 12.2 °F 63% 30.46 in 10.0 mi Calm Calm - N/A   Scattered Clouds
8:15 PM 24.8 °F - 14.0 °F 64% 30.45 in 10.0 mi Calm Calm - N/A   Scattered Clouds
8:35 PM 23.0 °F - 15.8 °F 74% 30.45 in 10.0 mi Calm Calm - N/A   Scattered Clouds
8:55 PM 23.0 °F - 14.0 °F 68% 30.45 in 10.0 mi Calm Calm - N/A   Scattered Clouds
9:15 PM 21.2 °F - 12.2 °F 68% 30.45 in 10.0 mi Calm Calm - N/A   Scattered Clouds
9:35 PM 21.2 °F - 12.2 °F 68% 30.45 in 10.0 mi Calm Calm - N/A   Scattered Clouds
9:55 PM 21.2 °F - 12.2 °F 68% 30.44 in 10.0 mi Calm Calm - N/A   Scattered Clouds
10:15 PM 21.2 °F - 12.2 °F 68% 30.43 in 10.0 mi Calm Calm - N/A   Clear
10:35 PM 19.4 °F - 10.4 °F 68% 30.43 in 10.0 mi Calm Calm - N/A   Clear
10:55 PM 19.4 °F - 12.2 °F 74% 30.43 in 10.0 mi Calm Calm - N/A   Scattered Clouds
11:15 PM 19.4 °F - 10.4 °F 68% 30.42 in 10.0 mi Calm Calm - N/A   Scattered Clouds
11:35 PM 19.4 °F 14.3 °F 10.4 °F 68% 30.42 in 10.0 mi SSW 3.5 mph - N/A   Scattered Clouds
11:55 PM 17.6 °F - 10.4 °F 73% 30.42 in 10.0 mi Calm Calm - N/A   Clear